Miscellaneous Local Product
Issued by NWS North Platte, NE

Home | Current Version | Previous Version | Text Only | Print | Product List | Glossary On
Versions: 1 2 3 4 5 6 7 8 9 10 11 12 13 14 15 16 17 18 19 20 21 22 23 24 25 26 27 28 29 30 31 32 33 34 35 36 37 38 39 40 41 42 43 44 45 46 47 48 49 50
789
AXUS43 KLBF 240110
MISLBF


WESTERN AND NORTH CENTRAL NEBRASKA HOURLY WEATHER ROUNDUP
NATIONAL WEATHER SERVICE NORTH PLATTE NE
800 PM CDT TUE MAY 23 2017

NOTE: "FAIR" INDICATES FEW OR NO CLOUDS BELOW 12,000 FEET WITH NO
SIGNIFICANT WEATHER AND/OR OBSTRUCTIONS TO VISIBILITY.

NOTE: STATIONS NOT REPORTING VARIABLES SUCH AS SKY/WEATHER OR
PRESSURE ARE PROVIDED BY RAWS AND APRS NETWORKS AND ARE NOT UNDER
NATIONAL WEATHER SERVICE QUALITY CONTROL.

...OBSERVATIONS IN AND NEAR THE EASTERN PANHANDLE OF NEBRASKA...

CITY           SKY/WX    TMP DP  RH WIND       PRES   REMARKS
PINE RIDGE     SUNNY     59  36  42 N12G22    30.03F
GORDON         FAIR      56  36  46 N14       30.03S
CHADRON        SUNNY     58  38  47 NE10      30.03S
ALLIANCE       SUNNY     57  35  43 N14       30.03S
SIDNEY         SUNNY     58  37  45 N14       30.04S
CRESCENT LAKE    N/A     57  35  44 N15G29      N/A
$$

...OBSERVATIONS IN NORTHERN NEBRASKA AND FAR SOUTHERN SOUTH DAKOTA...

CITY           SKY/WX    TMP DP  RH WIND       PRES   REMARKS
WINNER         CLOUDY    54  42  64 N12       29.99S
VALENTINE      MOSUNNY   56  37  49 N16G23    30.00S
THEDFORD       MOSUNNY   54  39  56 N17G25    29.99S
AINSWORTH      MOCLDY    51  42  71 N16       29.99R
O`NEILL        CLOUDY    50  44  78 N10       29.95S
ORD            CLOUDY    52  39  61 N17G24    29.93S
BROKEN BOW     CLOUDY    55  40  56 N22       29.95S
HALSEY           N/A     55  39  55 NW8G20      N/A
BUTTE            N/A     50  43  77 N14G21      N/A
CHAMBERS         N/A     51  43  73 N3          N/A
EWING            N/A     50  46  87 N10         N/A
$$

...OBSERVATIONS IN SOUTHWEST NEBRASKA AND FAR NORTHEAST COLORADO...

CITY           SKY/WX    TMP DP  RH WIND       PRES   REMARKS
WRAY           FAIR      61  34  36 N15       30.03S
IMPERIAL       SUNNY     58  33  39 N17G24    30.00F
OGALLALA       SUNNY     60  34  38 N15G24    30.01R
NORTH PLATTE   CLEAR     57  35  43 N17       29.98S
MCCOOK         CLEAR     59  35  40 N23G32    29.97S
LEXINGTON      PTCLDY    56  40  55 N18       29.96S
STAPLETON        N/A     54  38  55 SE3G15      N/A
GOTHENBURG       N/A     56  33  42 NW14        N/A
CALLAWAY         N/A     54  41  61 N13         N/A
$$

...OBSERVATIONS IN CENTRAL LINCOLN COUNTY AREA...

CITY           SKY/WX    TMP DP  RH WIND       PRES   REMARKS
N.P. AIRPORT   CLEAR     57  35  43 N17       29.98S
N.P. DOWNTOWN    N/A     57  37  47 N9G18       N/A
N.P. SOUTHEAST   N/A     57  35  44 N10G20      N/A
N.P. HILLCREST   N/A     56  35  46 N20G26      N/A
$$

...SOME OBSERVATIONS FROM AROUND THE REGION...

CITY           SKY/WX    TMP DP  RH WIND       PRES   REMARKS
DENVER         MOSUNNY   59  33  37 N14       30.09F
LIMON          SUNNY     56  32  40 N18G31    30.08F
ASPEN          CLOUDY    57  21  24 N12       30.20F
LARAMIE        CLOUDY    52  28  39 NW17      30.14F
CASPER         CLOUDY    59  39  47 S3        30.08F
CHEYENNE       SUNNY     54  30  40 N17       30.10F
SCOTTSBLUFF    SUNNY     61  36  39 N13       30.04S
GRAND ISLAND   CLOUDY    53  42  66 N20G25    29.93R
OMAHA          CLOUDY    53  45  74 N7        29.83S
SIOUX FALLS    MOCLDY    53  46  77 N18       29.87R
PIERRE         PTSUNNY   57  38  48 N16       29.98F
RAPID CITY     SUNNY     60  34  37 N15       30.03S
BISMARCK       SUNNY     63  37  38 E12G22    29.99F
KANSAS CITY    CLOUDY    57  49  74 NW8       29.80S
HILL CITY      MOCLDY    60  37  42 N18G24    29.97S
WICHITA        MOCLDY    60  40  47 NW23G36   29.88R
DODGE CITY     CLOUDY    58  40  51 N9        29.97S
OKLAHOMA CITY  PTCLDY    64  43  46 NW10      29.88S
DALLAS         CLOUDY    65  54  67 NW13      29.86R
AMARILLO       CLEAR     61  32  33 N12       30.03F
$$




USA.gov is the U.S. government's official web portal to all federal, state and local government web resources and services.